Home   Weather   Thane   Past weeks

Flag for India Past Weather in Thane, Maharashtra, India — Yesterday and Last 2 Weeks

Now
79 °F

Heavy rain. More clouds than sun.


Feels Like: 83 °F
Forecast: 84 / 86 °F
Wind: 23 mph from West

Location: Mumbai / Santacruz

Current Time: Jul 21, 2017 at 8:31:45 am

Latest Report: Jul 21, 2017 at 7:30 am


Visibility: 0 mi

Pressure: 29.53 "Hg

Humidity: 94%

Dew Point: 77 °F

Location of ThaneLocation

Past Weather in Thane — Graph

°F

Thane Temperature Yesterday

Maximum temperature yesterday: 86 °F (at 2:00 pm)
Minimum temperature yesterday: 77 °F (at 12:00 pm)
Average temperature yesterday: 82 °F

High & Low Weather Summary for the Past Weeks

 TemperatureHumidityPressure
High90 °F (Jul 6, 3:00 pm)100% (Jul 15, 8:00 pm)29.80 "Hg (Jul 15, 8:00 pm)
Low75 °F (Jul 17, 3:00 am)67% (Jul 6, 3:00 pm)29.45 "Hg (Jul 20, 3:30 am)
Average83 °F84%29.66 "Hg
* Reported Jul 6 6:30 am — Jul 21 7:00 am, Thane. Weather by CustomWeather, © 2017

Note: Actual official high and low records may vary slightly from our data, if they occured in-between our weather recording intervals... More about our weather records

Advertising

Thane Weather History for the Previous 24 Hours

Scroll right to see more
 ConditionsComfort  
Time TempWeatherWind HumidityBarometerVisibility
7:00 am
Fri, Jul 21
81 °FLight rain. More clouds than sun.12 mph94%29.53 "Hg1 mi
6:30 am81 °FLight rain. Mostly cloudy.9 mph94%29.50 "Hg1 mi
6:00 am81 °FRain. Mostly cloudy.12 mph94%29.50 "Hg1 mi
5:30 am79 °FHeavy rain. Mostly cloudy.8 mph94%29.50 "Hg1 mi
5:00 am81 °FHeavy rain. Mostly cloudy.8 mph94%29.50 "Hg1 mi
4:30 am79 °FLight rain. Mostly cloudy.8 mph94%29.50 "Hg1 mi
4:00 am81 °FLight rain. Mostly cloudy.8 mph94%29.50 "Hg1 mi
3:30 am82 °FLight rain. Mostly cloudy.8 mph89%29.50 "Hg1 mi
3:00 am82 °FFog.9 mph89%29.50 "Hg1 mi
2:30 am82 °FFog.9 mph89%29.50 "Hg1 mi
2:00 am81 °FFog.10 mph94%29.50 "Hg1 mi
1:30 am81 °FFog.9 mph94%29.50 "Hg1 mi
1:00 am81 °FLight rain. Mostly cloudy.12 mph94%29.53 "Hg1 mi
12:30 am82 °FLight rain. Mostly cloudy.10 mph89%29.53 "Hg1 mi
12:00 am82 °FFog.12 mph89%29.53 "Hg1 mi
11:30 pm
Thu, Jul 20
82 °FFog.10 mph89%29.53 "Hg1 mi
11:00 pm82 °FFog.8 mph89%29.53 "Hg1 mi
10:30 pm82 °FMostly cloudy.8 mph89%29.53 "Hg1 mi
10:00 pm82 °FLight rain. Mostly cloudy.8 mph89%29.53 "Hg1 mi
9:30 pm82 °FRain. Mostly cloudy.8 mph84%29.53 "Hg1 mi
9:00 pm81 °FLight rain. Mostly cloudy.8 mph94%29.53 "Hg1 mi
8:30 pm81 °FLight rain. Mostly cloudy.10 mph94%29.50 "Hg1 mi
8:00 pm79 °FRain. Mostly cloudy.9 mph94%29.50 "Hg1 mi
7:30 pm81 °FLight rain. More clouds than sun.9 mph94%29.47 "Hg1 mi
7:00 pm82 °FRain. More clouds than sun.10 mph89%29.47 "Hg1 mi
6:00 pm82 °FScattered showers. Broken clouds.13 mph89%29.47 "Hg1 mi
5:30 pm81 °FLight rain. Broken clouds.8 mph94%29.47 "Hg1 mi
5:00 pm82 °FRain. More clouds than sun.12 mph89%29.47 "Hg1 mi
4:30 pm82 °FDrizzle. Broken clouds.9 mph84%29.47 "Hg1 mi
4:00 pm81 °FBroken clouds.9 mph89%29.47 "Hg1 mi
3:30 pm82 °FLight rain. Broken clouds.12 mph89%29.50 "Hg1 mi
3:00 pm81 °FLight rain. Broken clouds.12 mph94%29.50 "Hg1 mi
2:30 pm84 °FLight rain. Broken clouds.12 mph89%29.50 "Hg1 mi
2:00 pm86 °FMore clouds than sun.12 mph84%29.50 "Hg1 mi
1:30 pm82 °FMore clouds than sun.9 mph84%29.53 "Hg1 mi
1:00 pm81 °FLight rain. More clouds than sun.8 mph94%29.53 "Hg1 mi
12:30 pm79 °FRain. More clouds than sun.7 mph94%29.53 "Hg1 mi
12:00 pm77 °FLight rain. More clouds than sun.8 mph94%29.56 "Hg1 mi
11:30 am82 °FMore clouds than sun.12 mph84%29.56 "Hg1 mi
11:00 am82 °FMore clouds than sun.12 mph84%29.56 "Hg1 mi
10:30 am81 °FLight rain. More clouds than sun.8 mph89%29.56 "Hg1 mi
10:00 am84 °FScattered showers. Broken clouds.8 mph84%29.53 "Hg2 mi
9:30 am84 °FBroken clouds.8 mph84%29.53 "Hg2 mi
9:00 am82 °FBroken clouds.8 mph89%29.53 "Hg2 mi
8:30 am82 °FBroken clouds.9 mph89%29.53 "Hg2 mi
8:00 am82 °FBroken clouds.10 mph89%29.50 "Hg1 mi
Weather by CustomWeather, © 2017

See weather overviewHow to use our weather pages